Location: Le Castellard
(44.1862°N, 6.1301°E)
Time: 12:46:22
(UTC+00:00)

MOS 1-B - Pass Details

Date: 18 January 2020
Orbit: 905 x 913 km, 99.4° (Epoch: 17 February)

Event Time Altitude Azimuth Distance (km) Brightness Sun altitude
Rises 05:01:46 0° 14° (NNE) 3,544 7.5 -21.9°
Reaches altitude 10° 05:04:10 10° 14° (NNE) 2,600 6.8 -21.5°
Maximum altitude 05:09:59 87° 287° (WNW) 916 4.3 -20.5°
Drops below altitude 10° 05:15:46 10° 198° (SSW) 2,587 6.6 -19.5°
Sets 05:18:10 0° 198° (SSW) 3,526 7.4 -19.0°
